User: anonymous   Login
Location: Ostrava
(49.8330°N, 18.2830°E)
Time: 05:09:07
(UTC+01:00)
Language:

Cosmos 2219 Rocket - Orbit

View from above orbital plane
View from above orbital plane
View from above satellite
View from above satellite

Ground track
Ground track

The orbit data is extracted from the following two-line orbital elements,

1 22220U 92076B   14331.88887684  .00000024  00000-0  36023-4 0  4653
2 22220 071.0010 221.5691 0015086 257.2838 175.5578 14.16338537138764
Epoch (UTC): 27 November 2014 21:19:58
Eccentricity: 0.0015086
inclination: 71.0010°
perigee height: 827 km
apogee height: 848 km
right ascension of ascending node: 221.5691°
argument of perigee: 257.2838°
revolutions per day: 14.16338537
mean anomaly at epoch: 175.5578°
orbit number at epoch: 13876

The dashed part of the orbit path shows where the satellite is in the earth's shadow,  

DLR